This demonstration page uses our WeatherBlox Daily Observations layout. Learn more.

Left ArrowRight Arrow

39.08367, -84.50855

Hourly Observations for August 7, 2015

Temp ( °F °C ) Dew Point ( °F °C ) Humidity (%) Winds ( mph kmh ) Pressure ( in mb ) Visibility ( mi km ) Precip ( " mm )
12:53 am 00:53 Cloudy 65 18.3 61 16.1 87 87 NNE 6 9 29.89 1012 10 16 N/A
1:53 am 01:53 Cloudy 64 17.8 62 16.7 93 93 NE 5 7 29.88 1012 10 16 N/A
2:53 am 02:53 Cloudy 65 18.3 61 16.1 87 87 NNE 3 6 29.87 1012 10 16 N/A
3:53 am 03:53 Mostly Cloudy 64 17.8 60 15.6 87 87 NNE 7 11 29.85 1011 10 16 N/A
4:01 am 04:01 Partly Cloudy 64 17.8 60 15.6 87 87 NE 6 9 29.85 1011 10 16 N/A
4:53 am 04:53 Mostly Cloudy 64 17.8 60 15.6 87 87 NNE 5 7 29.87 1012 10 16 N/A
5:53 am 05:53 Cloudy 64 17.8 60 15.6 87 87 NNE 6 9 29.87 1012 10 16 N/A
6:53 am 06:53 Cloudy 64 17.8 61 16.1 90 90 NE 3 6 29.88 1012 10 16 N/A
7:48 am 07:48 Cloudy 64 18 61 16 88 88 N N/A 29.91 1013 10 16 N/A
7:53 am 07:53 Cloudy 65 18.3 61 16.1 87 87 NNE 5 7 29.89 1012 10 16 N/A
8:53 am 08:53 Mostly Cloudy 66 18.9 60 15.6 81 81 NE 3 6 29.90 1012 10 16 N/A
9:53 am 09:53 Partly Cloudy 68 20 60 15.6 76 76 NNE 5 7 29.90 1013 10 16 N/A
10:53 am 10:53 Mostly Sunny 72 22.2 63 17.2 73 73 E 7 11 29.91 1013 10 16 N/A
11:53 am 11:53 Sunny 75 23.9 64 17.8 69 69 VRB 5 7 29.90 1013 10 16 N/A
12:53 pm 12:53 Partly Cloudy 77 25 65 18.3 66 66 ENE 8 13 29.89 1012 10 16 N/A
1:53 pm 13:53 Sunny 79 26.1 66 18.9 65 65 NNE 8 13 29.89 1012 10 16 N/A
2:53 pm 14:53 Partly Cloudy 80 26.7 64 17.8 58 58 N N/A 29.89 1012 10 16 N/A
3:53 pm 15:53 Sunny 81 27.2 65 18.3 58 58 VRB 5 7 29.88 1012 10 16 N/A
4:53 pm 16:53 Partly Cloudy 82 27.8 64 17.8 55 55 ENE 6 9 29.88 1012 10 16 N/A
5:53 pm 17:53 Partly Cloudy 82 27.8 64 17.8 55 55 ENE 3 6 29.86 1011 10 16 N/A
6:53 pm 18:53 Partly Cloudy 80 26.7 64 17.8 58 58 N N/A 29.86 1011 10 16 N/A
7:53 pm 19:53 Cloudy 75 23.9 70 21.1 84 84 N N/A 29.86 1011 10 16 N/A
8:53 pm 20:53 Mostly Cloudy 76 24.4 67 19.4 74 74 NNE 5 7 29.87 1012 10 16 N/A
9:53 pm 21:53 Clear 72 22.2 65 18.3 79 79 ENE 3 6 29.89 1012 10 16 N/A
10:53 pm 22:53 Mostly Clear 68 20 66 18.9 93 93 N N/A 29.89 1012 10 16 N/A
11:53 pm 23:53 Cloudy 68 20 65 18.3 90 90 N N/A 29.90 1013 10 16 N/A

Powered by AerisWeather